Location: George Washington National Forest Helicopter Landing Site
(38.6463°N, 79.0851°W)
Time: 08:14:15
(UTC-04:00)

Tiros 1 despin weight - Pass Details

Date: 28 August 2019
Orbit: 595 x 642 km, 48.2° (Epoch: 15 September)

Event Time Altitude Azimuth Distance (km) Brightness Sun altitude
Rises 02:47:23 0° 302° (WNW) 2,850 - -37.3°
Reaches altitude 10° 02:49:51 10° 313° (NW) 1,952 - -37.0°
Maximum altitude 02:53:54 32° 17° (NNE) 1,042 - -36.6°
Drops below altitude 10° 02:58:01 10° 82° (E) 1,976 - -36.2°
Exits shadow 02:58:52 - 86° (E) 2,276 ? -36.1°
Sets 03:00:32 0° 92° (E) 2,889 ? -36.0°
